Regional Weather Roundup
Issued by NWS

Home | Current Version | Previous Version | Graphics & Text | Print | Product List | Glossary Off
Versions: 1 2 3 4 5 6 7 8 9 10 11 12 13 14 15 16 17 18 19 20 21 22 23 24 25 26 27 28 29 30 31 32 33 34 35 36 37 38 39 40 41 42 43 44 45 46 47 48 49 50

000
ASUS43 KMKX 180021
RWRWI

WISCONSIN REGIONAL WEATHER ROUNDUP
NATIONAL WEATHER SERVICE MILWAUKEE/SULLIVAN WI
700 PM CDT FRI APR 17 2015

NOTE: "FAIR" INDICATES FEW OR NO CLOUDS BELOW 12,000 FEET WITH NO
SIGNIFICANT WEATHER AND/OR OBSTRUCTIONS TO VISIBILITY.

WIZ001-002-006>008-014>016-023>028-180100-
NORTHWEST WISCONSIN

CITY           SKY/WX    TMP DP  RH WIND       PRES   REMARKS
SUPERIOR ARPT  CLEAR     71  24  17 NW13G18   29.96S
6HR MIN TEMP:  66; 6HR MAX TEMP:  73;

ASHLAND        CLEAR     70  27  20 W6        29.96S
6HR MIN TEMP:  67; 6HR MAX TEMP:  73;

HAYWARD        CLEAR     71  20  14 VRB6      29.98S
6HR MIN TEMP:  67; 6HR MAX TEMP:  73;

SIREN          CLEAR     69  18  14 NW9       30.01S
6HR MIN TEMP:  68; 6HR MAX TEMP:  73;

CUMBERLAND     CLEAR     68  28  22 W9        30.01R
RICE LAKE      CLEAR     69  30  23 W7        30.01S
6HR MIN TEMP:  68; 6HR MAX TEMP:  73;

CHETEK         CLEAR     69  34  27 W5        30.00S
6HR MIN TEMP:  68; 6HR MAX TEMP:  74;

LADYSMITH      CLEAR     67  35  30 W6        30.00S
6HR MIN TEMP:  70; 6HR MAX TEMP:  74;

EAU CLAIRE     CLEAR     71  36  27 NW9       29.99S
6HR MIN TEMP:  71; 6HR MAX TEMP:  76;

MENOMONIE      CLEAR     72  32  23 W9        30.00S
6HR MIN TEMP:  72; 6HR MAX TEMP:  75;

NEW RICHMOND   CLEAR     71  25  18 NW8       30.02R
6HR MIN TEMP:  70; 6HR MAX TEMP:  74;

OSCEOLA        PTCLDY    71  30  22 NW7       30.04R
6HR MIN TEMP:  68; 6HR MAX TEMP:  74;

$$

WIZ003>005-009-010-017-018-180100-
NORTH CENTRAL WISCONSIN

CITY           SKY/WX    TMP DP  RH WIND       PRES   REMARKS
MANITOWISH WTR CLEAR     67  27  22 W7        29.97S
6HR MIN TEMP:  65; 6HR MAX TEMP:  71;

ARBOR VITAE    CLEAR     69  24  18 W6        29.97S
6HR MIN TEMP:  65; 6HR MAX TEMP:  72;

WOODRUFF       CLEAR     69  24  18 W6        29.97S
6HR MIN TEMP:  65; 6HR MAX TEMP:  72;

RHINELANDER    CLEAR     70  29  21 W10       29.97S
6HR MIN TEMP:  68; 6HR MAX TEMP:  74;

EAGLE RIVER    CLEAR     68  22  17 NW8       29.96S
6HR MIN TEMP:  67; 6HR MAX TEMP:  71;

LAND O LAKES   CLEAR     67  25  20 N6        29.97S
6HR MIN TEMP:  66; 6HR MAX TEMP:  72;

PHILLIPS       CLEAR     68  29  23 NW7       29.97S
6HR MIN TEMP:  67; 6HR MAX TEMP:  73;

TOMAHAWK       CLEAR     69  33  25 W7        29.97S
6HR MIN TEMP:  67; 6HR MAX TEMP:  73;

MEDFORD        CLEAR     68  38  33 W12       29.98S
MERRILL        CLEAR     70  40  33 W9        29.96S
6HR MIN TEMP:  70; 6HR MAX TEMP:  76;

$$

WIZ029-030-035-036-043>047-180100-
CENTRAL WISCONSIN

CITY           SKY/WX    TMP DP  RH WIND       PRES   REMARKS
WAUSAU         CLEAR     70  40  33 W10       29.95F
6HR MIN TEMP:  70; 6HR MAX TEMP:  75;

MOSINEE        CLEAR     70  39  32 W10       29.98F
MARSHFIELD     CLEAR     71  42  35 W8        29.98S
6HR MIN TEMP:  71; 6HR MAX TEMP:  76;

STEVENS POINT  CLEAR     71  42  35 W3        29.97F
6HR MIN TEMP:  71; 6HR MAX TEMP:  74;

WAUPACA        PTCLDY    75  38  26 W6        29.96S
6HR MIN TEMP:  74; 6HR MAX TEMP:  80;

WAUTOMA        PTCLDY    75  41  29 W8        29.97S
6HR MIN TEMP:  73; 6HR MAX TEMP:  80;

WISC RAPIDS    CLEAR     74  37  26 NW7       29.98S
6HR MIN TEMP:  74; 6HR MAX TEMP:  78;

CAMP DOUGLAS   PTCLDY    73  43  33 W6        29.97S
$$

WIZ011>013-019>022-031-037>040-048>050-180100-
NORTHEAST WISCONSIN

CITY           SKY/WX    TMP DP  RH WIND       PRES   REMARKS
ANTIGO         CLEAR     68  43  40 W14       29.96S
SHAWANO        PTCLDY    75  40  29 SW5       29.94S
6HR MIN TEMP:  73; 6HR MAX TEMP:  77;

OCONTO         CLEAR     59  40  48 SE8       29.95F
6HR MIN TEMP:  59; 6HR MAX TEMP:  65;

STURGEON BAY   CLEAR     54  37  54 SE9       29.99F
6HR MIN TEMP:  55; 6HR MAX TEMP:  61;

GREEN BAY      CLEAR     67  44  43 S13       29.96S
6HR MIN TEMP:  67; 6HR MAX TEMP:  75;

MANITOWOC      CLEAR     49  42  77 SE7       29.99F
6HR MIN TEMP:  49; 6HR MAX TEMP:  63;

APPLETON       PTCLDY    68  43  40 S10       29.97S
CLINTONVILLE   CLEAR     72  37  28 W8        29.94S
OSHKOSH        PTCLDY    68  46  45 SE7       29.96F
6HR MIN TEMP:  68; 6HR MAX TEMP:  73;

$$

WIZ032>034-041-042-053>061-180100-
SOUTHWEST WISCONSIN

CITY           SKY/WX    TMP DP  RH WIND       PRES   REMARKS
LA CROSSE      CLEAR     76  45  33 NW6       29.97S
6HR MIN TEMP:  76; 6HR MAX TEMP:  81;

SPARTA         CLEAR     74  39  27 W7        29.98S
6HR MIN TEMP:  74; 6HR MAX TEMP:  79;

VIROQUA        CLEAR     72  41  33 W7        30.00S
6HR MIN TEMP:  72; 6HR MAX TEMP:  77;

BOSCOBEL       PTCLDY    76  43  30 NW5       29.97F
6HR MIN TEMP:  76; 6HR MAX TEMP:  81;

PRAIRIE DU CHI PTCLDY    76  40  28 NW5       29.97S
6HR MIN TEMP:  75; 6HR MAX TEMP:  79;

PLATTEVILLE    MOCLDY    72  47  41 W6        29.98F
6HR MIN TEMP:  72; 6HR MAX TEMP:  79;

$$

WIZ056-057-062-063-064-067-068-180100-
SOUTH CENTRAL WISCONSIN

CITY           SKY/WX    TMP DP  RH WIND       PRES   REMARKS
REEDSBURG      CLEAR     74  43  33 NW8       29.97S
6HR MIN TEMP:  73; 6HR MAX TEMP:  78;

BARABOO/DELLS  CLEAR     73  39  28 W6        29.97S
6HR MIN TEMP:  73; 6HR MAX TEMP:  77;

LONE ROCK      CLEAR     74  42  31 NW7       29.97S
6HR MIN TEMP:  74; 6HR MAX TEMP:  80;

MINERAL POINT  PTCLDY    75  41  29 CALM      29.99S
MADISON        PTCLDY    76  43  30 NW3       29.97S
6HR MIN TEMP:  75; 6HR MAX TEMP:  79;

MIDDLETON      MOCLDY    74  40  29 NW5       29.98S
6HR MIN TEMP:  74; 6HR MAX TEMP:  80;

WATERTOWN      MOCLDY    70  47  43 E9        29.97S
6HR MIN TEMP:  70; 6HR MAX TEMP:  78;

MONROE         CLEAR     73  45  35 W7        29.98F
JANESVILLE     PTCLDY    75  43  31 W6        29.97F
$$

WIZ051-052-058>065-066-070>072-180100-
SOUTHEAST WISCONSIN

CITY           SKY/WX    TMP DP  RH WIND       PRES   REMARKS
MILWAUKEE      MOCLDY    54  40  59 E5        30.00F HAZE
6HR MIN TEMP:  54; 6HR MAX TEMP:  64;

WAUKESHA       PTCLDY    63  41  45 E12       30.00F
MILWAUKEE/TIMM PTCLDY    64  34  32 SE7       30.01S
RACINE         MOCLDY    54  41  61 NE5       30.02F
6HR MIN TEMP:  54; 6HR MAX TEMP:  75;

BURLINGTON     MOCLDY    65  45  46 E5        29.99S
6HR MIN TEMP:  65; 6HR MAX TEMP:  76;

KENOSHA        PTCLDY    63  44  50 E8        30.00S
6HR MIN TEMP:  63; 6HR MAX TEMP:  78;

FOND DU LAC    PTCLDY    68  46  45 SE9       29.97F
6HR MIN TEMP:  68; 6HR MAX TEMP:  76;

SHEBOYGAN      CLEAR     58  42  55 S8        30.00F
6HR MIN TEMP:  58; 6HR MAX TEMP:  66;

WEST BEND      MOCLDY    61  36  39 E5        30.00S
JUNEAU         PTCLDY    68  46  45 E8        29.98S
6HR MIN TEMP:  68; 6HR MAX TEMP:  75;

$$

LSZ147-162-180100-
LAKE SUPERIOR

STATION/POSITION TIME  TEMP    WIND        PRES    WAVE
                       AIR SEA DIR/SP/G            HT/PER
                 (UTC) (F)     (DEG/KT/KT) (MB)    (FT/S)
DEVILS ISLAND    0000   50     240/ 13/ 16 1014.1R
PORT WING        2340   69     250/  8/ 11 1014.2S
SAXON HARBOR     2340   69        CALM     1014.2F
$$

LMZ867-665-643>646-180100-
LAKE MICHIGAN

STATION/POSITION TIME  TEMP    WIND        PRES    WAVE
                       AIR SEA DIR/SP/G            HT/PER
                 (UTC) (F)     (DEG/KT/KT) (MB)    (FT/S)
CHAMBERS ISLAND  2300   59     120/  7/ 11 1015.2F
NORTHPORT PIER   2300   55     160/  9/ 12 1015.6F



USA.gov is the U.S. government's official web portal to all federal, state and local government web resources and services.